Poughkeepsie, NY

11:37 AM EDT on September 22, 2017 (GMT -0400)
Dutchess County

Weather History for KPOU - January, 2013

Change the Weather History Date:

Thursday, January 24, 2013

  Actual Average Record
Temperature  
Mean Temperature 13 °F 25 °F  
Max Temperature 23 °F 36 °F 63 °F (1967)
Min Temperature 2 °F 15 °F -15 °F (1961)
Degree Days  
Heating Degree Days 52 40  
Month to date heating degree days 858 952  
Since 1 July heating degree days 2908 3281  
Cooling Degree Days 0 0  
Month to date cooling degree days 0 0  
Year to date cooling degree days 0 0  
Moisture  
Dew Point -4 °F    
Average Humidity 59    
Maximum Humidity 86    
Minimum Humidity 31    
Precipitation  
Precipitation 0.00 in 0.10 in 0.80 in (2017)
Month to date precipitation 0.67 2.40  
Year to date precipitation 0.67 2.40  
Sea Level Pressure  
Sea Level Pressure 30.25 in    
Wind  
Wind Speed 8 mph (WNW)    
Max Wind Speed 24 mph    
Max Gust Speed 35 mph    
Visibility 10 miles    
Events      
T = Trace of Precipitation, MM = Missing Value Source: NWS Daily Summary

Daily Weather History Graph

Daily Weather History Graph

Search for Another Location

Airport or City:

Trip Planner

Search our weather history database for the weather conditions in past years. The results will help you decide how hot, cold, wet, or windy it might be!

Date:

Astronomy

Jan. 24, 2013 Rise Set
Actual Time 7:14 AM EST 5:01 PM EST
Civil Twilight 6:44 AM EST 5:31 PM EST
Nautical Twilight 6:10 AM EST 6:05 PM EST
Astronomical Twilight 5:37 AM EST 6:38 PM EST
Moon 3:00 PM EST (1/24) 5:10 AM EST (1/24)
Length of Visible Light 10h 47m
Length of Day
9h 47m
Waxing Gibbous, 94% of the Moon is Illuminated
Jan 24
Waxing Gibbous
Jan 26
Full
Feb 3
Last Quarter
Feb 10
New
Feb 17
First Quarter

Hourly Weather History & Observations

Time (EST) Temp. Windchill Dew Point Humidity Pressure Visibility Wind Dir Wind Speed Gust Speed Precip Events Conditions
12:53 AM 3.9 °F - -0.9 °F 80% 30.17 in 10.0 mi Calm Calm - N/A   Clear
1:53 AM 3.9 °F - -2.0 °F 76% 30.16 in 10.0 mi Calm Calm - N/A   Clear
2:53 AM 3.9 °F - -2.9 °F 73% 30.15 in 10.0 mi Calm Calm - N/A   Clear
3:53 AM 3.0 °F - -2.9 °F 76% 30.15 in 10.0 mi Calm Calm - N/A   Clear
4:53 AM 3.0 °F - -4.0 °F 73% 30.17 in 10.0 mi Calm Calm - N/A   Clear
5:53 AM 3.9 °F - -5.1 °F 66% 30.18 in 10.0 mi Calm Calm - N/A   Clear
6:53 AM 3.9 °F - -4.0 °F 70% 30.20 in 10.0 mi Calm Calm - N/A   Clear
7:53 AM 3.9 °F - -4.0 °F 70% 30.22 in 10.0 mi Calm Calm - N/A   Clear
8:53 AM 8.1 °F -3.2 °F -4.0 °F 58% 30.23 in 10.0 mi North 6.9 mph - N/A   Clear
9:53 AM 10.9 °F 1.4 °F -0.9 °F 59% 30.24 in 10.0 mi NW 5.8 mph - N/A   Clear
10:53 AM 16.0 °F 6.3 °F -0.0 °F 49% 30.24 in 10.0 mi NW 6.9 mph - N/A   Clear
11:53 AM 19.0 °F 6.8 °F -0.9 °F 42% 30.22 in 10.0 mi NW 11.5 mph - N/A   Clear
12:53 PM 21.0 °F 11.4 °F -2.0 °F 36% 30.21 in 10.0 mi NW 8.1 mph 18.4 mph N/A   Clear
1:53 PM 21.9 °F 7.3 °F -5.1 °F 30% 30.22 in 10.0 mi WNW 18.4 mph 26.5 mph N/A   Clear
2:53 PM 21.9 °F 8.7 °F -5.1 °F 30% 30.24 in 10.0 mi NW 15.0 mph 25.3 mph N/A   Clear
3:53 PM 21.0 °F 7.6 °F -6.0 °F 30% 30.26 in 10.0 mi WNW 15.0 mph - N/A   Clear
4:53 PM 19.0 °F 3.6 °F -7.1 °F 31% 30.28 in 10.0 mi WNW 18.4 mph 26.5 mph N/A   Clear
5:53 PM 18.0 °F 6.1 °F -6.0 °F 35% 30.31 in 10.0 mi WNW 10.4 mph - N/A   Clear
6:53 PM 17.1 °F 4.3 °F -6.0 °F 36% 30.34 in 10.0 mi West 11.5 mph 16.1 mph N/A   Clear
7:53 PM 16.0 °F 2.9 °F -5.1 °F 39% 30.35 in 10.0 mi WNW 11.5 mph 20.7 mph N/A   Clear
8:53 PM 16.0 °F 1.1 °F -4.0 °F 41% 30.34 in 10.0 mi West 15.0 mph 20.7 mph N/A   Clear
9:53 PM 15.1 °F 1.1 °F -2.9 °F 45% 30.35 in 10.0 mi West 12.7 mph 20.7 mph N/A   Clear
10:53 PM 14.0 °F 1.2 °F -2.0 °F 49% 30.36 in 10.0 mi West 10.4 mph - N/A   Clear
11:53 PM 14.0 °F 2.9 °F -2.0 °F 49% 30.36 in 10.0 mi West 8.1 mph - N/A   Clear